{"data":{"norad_id":69968,"epoch":"2026-09-19T17:00:19.154592Z","epoch_age_seconds":86152,"freshness":"FRESH","line1":"1 69968U 26157AB  26262.70855503  .00011834  00000+0  36069-3 0  9993","line2":"2 69968  53.1588 337.2482 0001207 100.3524 259.7614 15.34412844 11253","mean_motion":15.34412844,"eccentricity":0.0001207,"inclination_deg":53.1588,"raan_deg":337.2482,"arg_perigee_deg":100.3524,"mean_anomaly_deg":259.7614,"bstar":0.00036069,"rev_number":1125,"period_min":93.846972516609,"perigee_km":461.83938058935,"apogee_km":463.49075020794,"semimajor_km":6840.8020653986,"source":"CELESTRAK","updated_at":"2026-09-20T09:00:44.304078Z"}}